Regional Weather Roundup
Issued by NWS

Home | Current Version | Previous Version | Graphics & Text | Print | Product List | Glossary On
Versions: 1 2 3 4 5 6 7 8 9 10 11 12 13 14 15 16 17 18 19 20 21 22 23 24 25 26 27 28 29 30 31 32 33 34 35 36 37 38 39 40 41 42 43 44 45 46 47 48 49 50
000
ASUS43 KLMK 291210
RWRKY
KENTUCKY REGIONAL WEATHER ROUNDUP
NATIONAL WEATHER SERVICE LOUISVILLE KY
800 AM EDT SAT APR 29 2017

NOTE "FAIR" INDICATES FEW OR NO CLOUDS BELOW 12,000 FEET
WITH NO SIGNIFICANT WEATHER AND/OR OBSTRUCTIONS TO VISIBILITY.

KYZ001>023-026-027-061>063-070>075-291300-
WESTERN AND SOUTH CENTRAL KENTUCKY

CITY           SKY/WX    TMP DP  RH WIND       PRES   REMARKS
PADUCAH        CLOUDY    76  67  73 S15G22    29.86R
HENDERSON        N/A    N/A N/A N/A MISG        N/A
OWENSBORO      CLOUDY    70  65  84 NE10      29.95R
HOPKINSVILLE   MOSUNNY   73  68  84 SE9       29.94R
BOWLING GREEN  CLOUDY    75  69  81 S12       29.98R
GLASGOW        PTSUNNY   73  66  76 S3        30.01R
$$

KYZ024-025-028>034-038-045-046-053-291300-
NORTH CENTRAL KENTUCKY

CITY           SKY/WX    TMP DP  RH WIND       PRES   REMARKS
LOUISVILLE/SDF CLOUDY    69  65  86 W10       29.98R
LOUISVILLE/LOU NOT AVBL
FORT KNOX      CLOUDY    72  68  86 S8        29.95R
$$

KYZ035>037-039>044-047>052-055>060-089>105-291300-
NORTHEAST KENTUCKY

CITY           SKY/WX    TMP DP  RH WIND       PRES   REMARKS
LEXINGTON      CLOUDY    67  60  78 SE8       30.01R
COVINGTON      CLOUDY    63  62  97 E7        29.97S
FRANKFORT      CLOUDY    67  61  81 SE8       29.98R
$$

KYZ054-064>069-076>088-106>120-291300-
SOUTHEAST KENTUCKY

CITY           SKY/WX    TMP DP  RH WIND       PRES   REMARKS
JACKSON        CLOUDY    71  63  75 SE6       30.08F
LONDON         PTSUNNY   67  62  84 CALM      30.07F
SOMERSET       CLOUDY    70  63  78 S5        30.06S
MIDDLESBORO    CLOUDY    68  65  92 CALM      30.12S
MONTICELLO     MOSUNNY   71  66  84 NE7       30.07R
$$





USA.gov is the U.S. government's official web portal to all federal, state and local government web resources and services.